Regional Weather Roundup
Issued by NWS Glasgow, MT

Home | Current Version | Previous Version | Text Only | Print | Product List | Glossary On
Versions: 1 2 3 4 5 6 7 8 9 10 11 12 13 14 15 16 17 18 19 20 21 22 23 24 25 26 27 28 29 30 31 32 33 34 35 36 37 38 39 40 41 42 43 44 45 46 47 48 49 50
000
ASUS45 KGGW 271615
RWRGGW
HOURLY WEATHER ROUNDUP FOR NORTHEAST MONTANA
NATIONAL WEATHER SERVICE GLASGOW MONTANA
900 AM MST FRI FEB 27 2015

NOTE: "FAIR" INDICATES FEW OR NO CLOUDS BELOW 12,000 FEET WITH NO
SIGNIFICANT WEATHER AND/OR OBSTRUCTIONS TO VISISBILITY.

NORTHEAST MONTANA


CITY           SKY/WX    TMP DP  RH WIND       PRES   REMARKS
GLASGOW        SUNNY      5  -4  66 SE16      30.10F WCI -14
PLENTYWOOD       N/A      1  -4  79 S7          N/A
WOLF POINT     SUNNY      7  -2  66 NE5       30.17F
JORDAN           N/A      9   1  70 S6        30.06F
WINNETT          N/A     12   4  70 SE8G20      N/A
SIDNEY         SUNNY      7 -17  33 CALM      30.24F
GLENDIVE       SUNNY      7   1  78 S14       30.16F WCI -10
MALTA            N/A     11   3  70 E2          N/A
SCOBEY           N/A      5  -6  60 S5        30.08F

FORT PECK REPORTS


CITY           SKY/WX    TMP DP  RH WIND       PRES   REMARKS
FORT PECK        N/A      9   0  67 SE12        N/A  WCI  -6
THE PINES        N/A      8  -2  63 S7          N/A

SOUTHEAST MONTANA


CITY           SKY/WX    TMP DP  RH WIND       PRES   REMARKS
BILLINGS       MOSUNNY    6   2  83 S5        29.97S
MILES CITY     SUNNY      8   0  69 SE14      30.10F WCI  -8
BAKER          SUNNY      8  -1  66 SE16      30.14S WCI -10
LIVINGSTON     MOSUNNY    7   1  76 NW13      29.88S WCI  -9

CENTRAL MONTANA


CITY           SKY/WX    TMP DP  RH WIND       PRES   REMARKS
HAVRE          PTSUNNY    4  -1  80 CALM      30.06R
LEWISTOWN      MOSUNNY    5  -1  76 CALM      29.90R
GREAT FALLS    CLOUDY    10   5  80 W3        29.97R
CUT BANK       CLOUDY    12   7  80 N17       29.98R WCI  -5
HELENA         SUNNY     14   6  70 CALM      29.96R
BUTTE          CLOUDY    11   5  77 CALM      29.83R
BOZEMAN        SUNNY     11   4  73 CALM      29.92S

WESTERN MONTANA


CITY           SKY/WX    TMP DP  RH WIND       PRES   REMARKS
MISSOULA       CLOUDY    25  12  58 E14       29.90R
KALISPELL      NOT AVBL

NORTH DAKOTA


CITY           SKY/WX    TMP DP  RH WIND       PRES   REMARKS
WILLISTON      SUNNY      2  -5  72 S6        30.25F
DICKINSON      SUNNY      9  -1  64 S17       30.19F WCI  -9
MINOT          SUNNY      2  -7  66 SW12      30.30F WCI -15
BISMARCK       SUNNY      1  -5  75 VRB5      30.39F

SOUTHERN SASKATCHEWAN


CITY           SKY/WX    TMP DP  RH WIND       PRES   REMARKS
REGINA         PTSUNNY  -11 -15  84 SE10      30.18F WCI -30
MOOSE JAW      CLOUDY     3  -9  55 S13       30.15F WCI -14
ESTEVAN        NOT AVBL
SWIFT CURRENT  SUNNY      1  -4  78 SW15      30.02F WCI -18



USA.gov is the U.S. government's official web portal to all federal, state and local government web resources and services.